Regional Weather Roundup
Issued by NWS

Home | Current Version | Previous Version | Text Only | Print | Product List | Glossary Off
Versions: 1 2 3 4 5 6 7 8 9 10 11 12 13 14 15 16 17 18 19 20 21 22 23 24 25 26 27 28 29 30 31 32 33 34 35 36 37 38 39 40 41 42 43 44 45 46 47 48 49 50

000
ASUS45 KABQ 211701
RWRNM
NEW MEXICO REGIONAL WEATHER ROUNDUP
NATIONAL WEATHER SERVICE ALBUQUERQUE NM
1100 AM MDT FRI JUL 21 2017

NOTE: "FAIR" MEANS FEW OR NO CLOUDS BELOW 12,000 FEET AGL WITH NO
       SIGNIFICANT WEATHER OR OBSTRUCTIONS TO VISION.

      THIS PRODUCT IS RELEASED AS TWO VERSIONS.  ONE VERSION NEAR
      THE TOP OF THE HOUR CONTAINING PRELIMINARY DATA FROM ALBUQUERQUE
      AND OTHER STATIONS.  A FINAL VERSION WITH ADDITIONAL DATA IS
      ISSUED ABOUT 10 MINUTES AFTER THE HOUR.

NMZ501-503-504-510>518-211800-
NORTHWEST PLATEAU/NORTHCENTRAL MOUNTAINS

CITY           SKY/WX    TMP DP  RH WIND       PRES   REMARKS
FARMINGTON     FAIR      79  54  41 VRB6      30.21S
LOS ALAMOS     FAIR      77  47  34 E6        30.34S
SANTA FE       FAIR      79  52  38 SW9       30.27F
TAOS           FAIR      77  48  36 NW7       30.33F
ANGEL FIRE     FAIR      71  44  38 CALM      30.42S

$$
NMZ402-403-502-505>509-211800-
WESTCENTRAL MOUNTAINS/SOUTHWEST MOUNTAINS

CITY           SKY/WX    TMP DP  RH WIND       PRES   REMARKS
GALLUP         PTSUNNY   72  54  53 S6        30.29S
GRANTS         FAIR      75  50  41 S6        30.32R
SILVER CITY    CLOUDY    68  62  83 SE3       30.26S

$$
NMZ407-409-411-412-211800-
SOUTHERN DESERTS

CITY           SKY/WX    TMP DP  RH WIND       PRES   REMARKS
DEMING         CLOUDY    76  65  68 E5        30.18S
LAS CRUCES     FAIR      77  62  59 CALM      30.19S
HOLLOMAN AFB   FAIR      86  62  44 S3        30.17F
ALAMOGORDO     FAIR      81  59  47 SW8       30.17S
T OR C         CLOUDY    74  51  44 CALM      30.21S

$$
NMZ519>523-211800-
CENTRAL VALLEYS/CENTRAL HIGHLANDS

CITY           SKY/WX    TMP DP  RH WIND       PRES   REMARKS
ALBUQUERQUE    FAIR      81  54  39 VRB3      30.22F
DOUBLE EAGLE   MOSUNNY   79  54  41 SW3       30.25F
MORIARTY ARPT  FAIR      80  55  41 SW7       30.28F
CLINES CORNERS FAIR      77  49  37 CALM      30.33S
BELEN          NOT AVBL
SOCORRO        PTSUNNY   80  56  42 S8        30.20S

$$
NMZ524>526-539-540-211800-
SOUTHCENTRAL MOUNTAINS

CITY           SKY/WX    TMP DP  RH WIND       PRES   REMARKS
RUIDOSO        FAIR      73  54  49 S9        30.33F

$$
NMZ527>531-211800-
NORTHEAST HIGHLANDS/NORTHEAST PLAINS

CITY           SKY/WX    TMP DP  RH WIND       PRES   REMARKS
LAS VEGAS      FAIR      79  46  31 SW7       30.29S
RATON          FAIR      84  48  28 SW8       30.22F
CLAYTON        FAIR      90  50  25 SW20G25   30.14S

$$
NMZ532>537-211800-
EASTCENTRAL PLAINS

CITY           SKY/WX    TMP DP  RH WIND       PRES   REMARKS
SANTA ROSA     FAIR      87  52  29 S5        30.15S
TUCUMCARI      FAIR      95  50  21 SW13      30.08F
CANNON AFB     FAIR      87  51  28 SE7       30.15F
CLOVIS AIRPORT FAIR      87  52  29 S8        30.15F

$$
NMZ028-029-538-211800-
SOUTHEAST PLAINS

CITY           SKY/WX    TMP DP  RH WIND       PRES   REMARKS
ROSWELL        FAIR      88  57  34 E3        30.09F
ARTESIA        FAIR      86  59  39 VRB5      30.09F
CARLSBAD       FAIR      90  60  36 VRB6      30.06F
HOBBS          SUNNY     86  59  39 SE9       30.12S


$$




USA.gov is the U.S. government's official web portal to all federal, state and local government web resources and services.